Camden, SC

11:40 AM EDT on August 18, 2017 (GMT -0400)
Woodward

Weather History for KCDN - November, 2012

Change the Weather History Date:

Sunday, November 11, 2012

  Actual Average (KSSC) Record (KSSC)
Temperature  
Mean Temperature 55 °F -  
Max Temperature 73 °F 64 °F 80 °F (2006)
Min Temperature 37 °F 41 °F 32 °F (1996)
Degree Days  
Heating Degree Days 10    
Growing Degree Days 5 (Base 50)    
Moisture  
Dew Point 47 °F    
Average Humidity 73    
Maximum Humidity 94    
Minimum Humidity 35    
Precipitation  
Precipitation 0.00 in - - ()
Sea Level Pressure  
Sea Level Pressure 30.42 in    
Wind  
Wind Speed 1 mph (ESE)    
Max Wind Speed 7 mph    
Max Gust Speed -    
Visibility 10 miles    
Events      
Averages and records for this station are not official NWS values.
T = Trace of Precipitation, MM = Missing Value Source: NWS Daily Summary

Daily Weather History Graph

Daily Weather History Graph

Search for Another Location

Airport or City:

Trip Planner

Search our weather history database for the weather conditions in past years. The results will help you decide how hot, cold, wet, or windy it might be!

Date:

Astronomy

Nov. 11, 2012 Rise Set
Actual Time 6:51 AM EST 5:20 PM EST
Civil Twilight 6:25 AM EST 5:46 PM EST
Nautical Twilight 5:55 AM EST 6:16 PM EST
Astronomical Twilight 5:25 AM EST 6:46 PM EST
Moon 4:09 AM EST (11/11) 3:38 PM EST (11/11)
Length of Visible Light 11h 21m
Length of Day
10h 28m
Waning Crescent, 7% of the Moon is Illuminated
Nov 11
Waning Crescent
Nov 13
New
Nov 20
First Quarter
Nov 28
Full
Dec 6
Last Quarter

Hourly Weather History & Observations

Time (EST) Temp. Dew Point Humidity Pressure Visibility Wind Dir Wind Speed Gust Speed Precip Events Conditions
12:15 AM 42.8 °F 37.4 °F 81% 30.40 in 10.0 mi Calm Calm - 0.00 in   Clear
12:35 AM 44.6 °F 37.4 °F 76% 30.40 in 10.0 mi Calm Calm - 0.00 in   Clear
12:55 AM 42.8 °F 37.4 °F 81% 30.40 in 10.0 mi Calm Calm - 0.00 in   Clear
1:15 AM 42.8 °F 37.4 °F 81% 30.40 in 10.0 mi Calm Calm - 0.00 in   Clear
2:15 AM 39.2 °F 35.6 °F 87% 30.40 in 10.0 mi Calm Calm - 0.00 in   Clear
2:35 AM 39.2 °F 37.4 °F 93% 30.40 in 10.0 mi Calm Calm - 0.00 in   Clear
2:55 AM 39.2 °F 35.6 °F 87% 30.40 in 10.0 mi Calm Calm - 0.00 in   Clear
3:15 AM 39.2 °F 35.6 °F 87% 30.40 in 10.0 mi Calm Calm - 0.00 in   Clear
3:35 AM 39.2 °F 35.6 °F 87% 30.40 in 10.0 mi Calm Calm - 0.00 in   Clear
3:55 AM 37.4 °F 35.6 °F 93% 30.40 in 9.0 mi Calm Calm - 0.00 in   Clear
4:15 AM 37.4 °F 35.6 °F 93% 30.41 in 10.0 mi Calm Calm - 0.00 in   Clear
4:35 AM 37.4 °F 35.6 °F 93% 30.41 in 10.0 mi Calm Calm - 0.00 in   Clear
4:55 AM 37.4 °F 35.6 °F 93% 30.41 in 10.0 mi Calm Calm - 0.00 in   Clear
5:15 AM 37.4 °F 35.6 °F 93% 30.41 in 10.0 mi Calm Calm - 0.00 in   Clear
5:35 AM 37.4 °F 35.6 °F 93% 30.42 in 10.0 mi Calm Calm - 0.00 in   Clear
5:55 AM 37.4 °F 33.8 °F 87% 30.43 in 10.0 mi Calm Calm - 0.00 in   Clear
6:15 AM 37.4 °F 33.8 °F 87% 30.43 in 10.0 mi Calm Calm - 0.00 in   Clear
6:55 AM 37.4 °F 35.6 °F 93% 30.45 in 9.0 mi Calm Calm - 0.00 in   Clear
7:15 AM 37.4 °F 35.6 °F 93% 30.46 in 9.0 mi Calm Calm - 0.00 in   Clear
7:35 AM 39.2 °F 37.4 °F 93% 30.46 in 9.0 mi Calm Calm - 0.00 in   Partly Cloudy
7:55 AM 44.6 °F 39.2 °F 81% 30.47 in 9.0 mi Calm Calm - 0.00 in   Scattered Clouds
8:15 AM 46.4 °F 39.2 °F 76% 30.47 in 10.0 mi Calm Calm - 0.00 in   Clear
8:35 AM 48.2 °F 39.2 °F 71% 30.47 in 10.0 mi Calm Calm - 0.00 in   Clear
8:55 AM 53.6 °F 39.2 °F 58% 30.47 in 10.0 mi East 3.5 mph - 0.00 in   Clear
9:15 AM 55.4 °F 42.8 °F 63% 30.47 in 10.0 mi Calm Calm - 0.00 in   Clear
11:15 AM 69.8 °F 41.0 °F 35% 30.47 in 10.0 mi Calm Calm - 0.00 in   Clear
11:35 AM 69.8 °F 44.6 °F 40% 30.47 in 10.0 mi Calm Calm - 0.00 in   Clear
11:55 AM 71.6 °F 46.4 °F 41% 30.47 in 10.0 mi Calm Calm - 0.00 in   Clear
12:15 PM 71.6 °F 48.2 °F 43% 30.45 in 10.0 mi Calm Calm - 0.00 in   Partly Cloudy
12:35 PM 73.4 °F 48.2 °F 41% 30.44 in 10.0 mi Calm Calm - 0.00 in   Mostly Cloudy
12:55 PM 71.6 °F 51.8 °F 50% 30.43 in 10.0 mi SE 5.8 mph - 0.00 in   Mostly Cloudy
1:15 PM 71.6 °F 51.8 °F 50% 30.43 in 10.0 mi South 5.8 mph - 0.00 in   Mostly Cloudy
1:35 PM 71.6 °F 51.8 °F 50% 30.42 in 10.0 mi South 4.6 mph - 0.00 in   Scattered Clouds
1:55 PM 71.6 °F 53.6 °F 53% 30.42 in 10.0 mi ESE 6.9 mph - 0.00 in   Mostly Cloudy
2:15 PM 71.6 °F 53.6 °F 53% 30.42 in 10.0 mi South 4.6 mph - 0.00 in   Mostly Cloudy
2:35 PM 71.6 °F 53.6 °F 53% 30.41 in 10.0 mi South 3.5 mph - 0.00 in   Mostly Cloudy
2:55 PM 71.6 °F 53.6 °F 53% 30.41 in 10.0 mi SSW 3.5 mph - 0.00 in   Scattered Clouds
3:15 PM 71.6 °F 53.6 °F 53% 30.40 in 10.0 mi South 3.5 mph - 0.00 in   Mostly Cloudy
3:35 PM 73.4 °F 53.6 °F 50% 30.40 in 10.0 mi Calm Calm - 0.00 in   Overcast
3:55 PM 73.4 °F 55.4 °F 53% 30.40 in 10.0 mi SE 4.6 mph - 0.00 in   Mostly Cloudy
4:15 PM 71.6 °F 55.4 °F 57% 30.40 in 10.0 mi SE 3.5 mph - 0.00 in   Mostly Cloudy
4:35 PM 71.6 °F 55.4 °F 57% 30.39 in 10.0 mi ESE 3.5 mph - 0.00 in   Mostly Cloudy
5:15 PM 69.8 °F 55.4 °F 60% 30.39 in 10.0 mi East 3.5 mph - 0.00 in   Mostly Cloudy
5:35 PM 68.0 °F 55.4 °F 64% 30.39 in 10.0 mi East 3.5 mph - 0.00 in   Mostly Cloudy
6:15 PM 66.2 °F 55.4 °F 68% 30.40 in 10.0 mi East 3.5 mph - 0.00 in   Partly Cloudy
6:35 PM 64.4 °F 55.4 °F 73% 30.40 in 10.0 mi East 3.5 mph - 0.00 in   Scattered Clouds
6:55 PM 64.4 °F 55.4 °F 73% 30.41 in 10.0 mi ESE 4.6 mph - 0.00 in   Partly Cloudy
7:15 PM 64.4 °F 55.4 °F 73% 30.41 in 10.0 mi ESE 5.8 mph - 0.00 in   Clear
7:35 PM 62.6 °F 55.4 °F 77% 30.41 in 10.0 mi ESE 3.5 mph - 0.00 in   Clear
8:15 PM 62.6 °F 55.4 °F 77% 30.41 in 10.0 mi ESE 5.8 mph - 0.00 in   Clear
8:35 PM 62.6 °F 57.2 °F 82% 30.41 in 10.0 mi ESE 3.5 mph - 0.00 in   Clear
8:55 PM 62.6 °F 57.2 °F 82% 30.41 in 10.0 mi ESE 5.8 mph - 0.00 in   Clear
9:15 PM 60.8 °F 57.2 °F 88% 30.41 in 10.0 mi ESE 4.6 mph - 0.00 in   Clear
9:35 PM 62.6 °F 57.2 °F 82% 30.42 in 10.0 mi ESE 5.8 mph - 0.00 in   Clear
9:55 PM 60.8 °F 55.4 °F 82% 30.42 in 10.0 mi East 4.6 mph - 0.00 in   Clear
10:15 PM 60.8 °F 55.4 °F 82% 30.41 in 10.0 mi ESE 4.6 mph - 0.00 in   Clear
10:35 PM 60.8 °F 55.4 °F 82% 30.42 in 10.0 mi Calm Calm - 0.00 in   Clear
10:55 PM 59.0 °F 55.4 °F 88% 30.42 in 10.0 mi East 3.5 mph - 0.00 in   Scattered Clouds
11:15 PM 60.8 °F 55.4 °F 82% 30.41 in 10.0 mi ENE 3.5 mph - 0.00 in   Mostly Cloudy
11:35 PM 59.0 °F 55.4 °F 88% 30.41 in 10.0 mi East 4.6 mph - 0.00 in   Partly Cloudy
11:55 PM 57.2 °F 55.4 °F 94% 30.40 in 10.0 mi East 4.6 mph - 0.00 in   Partly Cloudy